#timestamp,LO_Frequency,Hit,StdDev 
1565582415.3,286046978.9,N
1565582435.1,286046981.9,N
1565582455.9,286046976.3,Y
1565582475.7,286046992.4,P
1565582495.6,286046991.6,N
1565582515.4,286046988.1,P
1565582535.2,286046985.4,Y
1565582555.1,286046998.9,P
1565582556.0,286046998.9,N
1565582575.8,286046997.3,N
1565582595.6,286046997.2,N
1565582615.5,286046995.3,N
1565582635.3,286046994.9,N
1565582655.2,286046994.8,N
1565582675.9,286046992.4,N
1565582695.7,286046990.5,Y
1565582745.6,286046992.3,E
1565582755.5,286046995.4,N
1565582775.4,286047002.7,P
1565582795.2,286047002.2,N
1565582815.0,286047000.1,N
1565582815.9,286047000.1,N
1565582835.8,286046999.7,N
1565582855.6,286047002.6,N
1565582875.4,286046999.6,N
1565582895.3,286047000.2,N
1565582915.1,286047001.0,N
1565582935.9,286046999.4,N
1565582955.7,286046997.0,N
1565582975.5,286046998.7,N
1565582995.4,286047000.0,N
1565583015.2,286047001.8,N
1565583035.0,286047002.5,N
1565583035.9,286047002.5,N
1565583055.8,286047003.0,N
1565583075.6,286047003.6,N
1565583095.5,286047004.8,N
1565583115.3,286047004.9,N
1565583135.1,286047007.1,Y
1565583155.9,286047004.6,P
1565583175.7,286047007.3,P
1565583195.5,286047012.3,P
1565583215.4,286047011.5,N
1565583235.2,286047013.9,Y
1565583255.1,286047003.0,P
1565583256.0,286047003.0,N
1565583275.8,286047006.5,P
1565583295.6,286047007.8,Y
1565583315.5,286047007.3,P
1565583335.3,286047010.7,P
1565583355.2,286047010.0,P
1565583375.9,286047008.9,Y
1565583395.7,286046996.6,P
1565583415.6,286046998.3,N
1565583435.4,286047000.7,N
1565583455.2,286047007.2,N
1565583475.1,286047006.6,N
1565583476.0,286047006.6,N
1565583495.8,286047008.5,N
1565583515.7,286047012.7,N
1565583535.5,286047015.2,Y
1565583555.3,286047006.5,P
1565583575.2,286047008.6,P
1565583595.0,286047012.3,P
1565583595.9,286047012.3,Y
1565583615.8,286047001.4,P
1565583635.6,286047002.0,N
1565583655.4,286047002.5,N
1565583675.3,286047000.7,N
1565583695.1,286047002.3,N
1565583696.0,286047002.3,N
1565583715.8,286047003.7,N
1565583735.7,286047005.8,N
1565583755.5,286047005.1,N
1565583775.3,286047003.2,N
1565583795.2,286047001.0,N
1565583815.0,286046996.8,N
1565583815.9,286046996.8,N
1565583835.8,286046995.4,N
1565583855.6,286046994.5,N
1565583875.4,286046990.4,N
1565583895.3,286046989.2,N
1565583915.1,286046988.4,N
1565583935.8,286046984.9,N
1565583955.7,286046981.1,Y
1565583975.5,286046984.1,P
1565583995.4,286046986.1,N
1565584015.2,286046988.9,N
1565584035.0,286046991.0,N
1565584035.9,286046991.0,N
1565584055.8,286046991.9,N
1565584075.6,286046993.9,N
1565584095.5,286046996.8,N
1565584115.3,286047000.3,N
1565584135.1,286047004.3,N
1565584155.9,286047004.8,N
1565584175.7,286047002.9,N
1565584195.5,286047003.0,N
1565584215.4,286047007.1,N
1565584235.2,286047007.1,N
1565584255.0,286047009.1,N
1565584256.0,286047009.1,N
1565584275.8,286047007.6,N
1565584295.6,286047004.2,N
1565584315.5,286047005.9,N
1565584335.3,286047002.1,N
1565584355.1,286046997.5,N
1565584375.9,286046994.8,N
1565584395.2,286046992.8,N
1565584415.1,286046988.0,N
1565584416.0,286046988.0,N
1565584435.8,286046983.7,N
1565584455.6,286046980.9,N
1565584475.5,286046982.7,N
1565584495.3,286046986.6,N
1565584515.2,286046991.2,N
1565584535.9,286046985.4,N
1565584555.7,286046988.4,N
1565584575.6,286046985.1,N
1565584595.4,286046982.8,N
1565584615.2,286046980.7,N
1565584635.1,286046981.6,N
1565584636.0,286046981.6,N
1565584655.8,286046977.1,N
1565584675.7,286046977.6,N
1565584695.5,286046978.0,N
1565584715.3,286046978.9,N
1565584735.2,286046979.9,N
1565584755.9,286046981.2,N
1565584775.7,286046979.5,N
1565584795.6,286046976.7,N
1565584815.4,286046976.5,N
1565584835.3,286046971.4,Y
1565584855.1,286046984.8,P
1565584856.0,286046984.8,P
1565584875.8,286046982.2,P
1565584895.7,286046981.7,Y
1565584915.5,286046997.3,P
1565584935.3,286046999.6,N
1565584955.2,286046999.5,N
1565584975.0,286046998.7,N
1565584975.9,286046998.7,N
1565584995.8,286046995.5,N
1565585015.6,286046997.0,N
1565585035.4,286046996.8,N
1565585055.3,286046998.0,N
1565585075.1,286046995.0,N
1565585095.8,286046999.9,N
1565585115.7,286047004.4,N
1565585135.5,286047001.3,N
1565585155.4,286047004.7,N
1565585175.2,286047003.3,N
1565585195.0,286047007.1,N
1565585195.9,286047007.1,N
1565585215.8,286047007.3,N
1565585235.6,286047005.5,N
1565585255.4,286047005.6,N
1565585275.3,286047001.9,N
1565585295.1,286047002.3,N
1565585315.9,286047003.3,N
1565585335.7,286046999.9,N
1565585355.5,286046999.7,N
1565585375.4,286046999.8,N
1565585395.2,286047001.1,N
1565585415.0,286046997.5,N
1565585416.0,286046997.5,N
1565585435.8,286046999.5,N
1565585455.6,286047001.2,N
1565585475.5,286047001.2,N
1565585495.3,286046999.3,N
1565585515.1,286047000.3,N
1565585535.9,286046997.9,N
1565585555.7,286046997.7,N
1565585575.6,286046997.1,N
1565585595.4,286046998.0,N
1565585615.2,286046997.1,N
1565585635.1,286046997.9,N
1565585636.0,286046997.9,N
1565585655.8,286046993.5,N
1565585675.7,286046997.5,N
1565585695.5,286047001.0,N
1565585715.3,286047006.0,N
1565585735.2,286047003.8,N
1565585755.0,286047003.9,N
1565585755.9,286047003.9,N
1565585775.8,286047007.0,N
1565585795.6,286047010.2,Y
1565585815.4,286047011.5,P
1565585835.3,286047011.7,N
1565585855.1,286047016.3,P
1565585875.8,286047019.1,Y
1565585895.7,286047007.9,P
1565585915.5,286047005.3,P
1565585935.4,286046999.9,N
1565585955.2,286046997.7,N
1565585975.0,286046995.1,N
1565585975.9,286046995.1,N
1565585995.8,286046996.0,N
